Volver al catálogo

STARLINK-5984

ActivoComunicacionesSSO
NORAD 56329·PAYLOAD·🇺🇸 United States

Lanzado Apr 27, 2023 desde Vandenberg Space Force Base

Loading…

Próximos Pases (próximas 24 horas)

TLE

ActualizadoSource: CelesTrak SupGP

Época: Sep 14, 2026, 22:23 UTC

1 56329C 23058N   26257.93312500  .00053606  00000+0  16642-2 0  2575
2 56329  97.2849 254.8090 0001813  95.6446 303.3670 15.33407998    13

Sigue STARLINK-5984 en tiempo real con AllMySat

Download on the App Store